Tracking 32523 objects as of 13-Dec-2025
HD Live streaming from Space Station
objects crossing your sky now

STARLINK-6194

Track STARLINK-6194 now!
10-day predictions
STARLINK-6194 is classified as:


NORAD ID: 57077
Int'l Code: 2023-088AF
Perigee: 565.4 km
Apogee: 567.1 km
Inclination: 43.0 °
Period: 95.8 minutes
Semi major axis: 6937 km
RCS: Unknown
Launch date: June 22, 2023
Source: United States (US)
Launch site: AIR FORCE WESTERN TEST RANGE (AFWTR)
Your satellite tracking list
Your tracking list is empty




NASA's NSSDC Master Catalog

Two Line Element Set (TLE):
1 57077U 23088AF  25346.92135940 -.00000478  00000-0 -20319-4 0  9990
2 57077  43.0041 206.2764 0001242 268.6146  91.4554 15.02528233137638
Source of the keplerian elements: AFSPC